Regional Weather Roundup
Issued by NWS

Home | Current Version | Previous Version | Text Only | Print | Product List | Glossary Off
Versions: 1 2 3 4 5 6 7 8 9 10 11 12 13 14 15 16 17 18 19 20 21 22 23 24 25 26 27 28 29 30 31 32 33 34 35 36 37 38 39 40 41 42 43 44 45 46 47 48 49 50

403
ASUS43 KDMX 281108
RWRIA

WEATHER ROUNDUP FOR IOWA
NATIONAL WEATHER SERVICE DES MOINES IA
600 AM CDT SUN AUG 28 2016

NOTE: "FAIR" INDICATES FEW OR NO CLOUDS BELOW 12,000 FEET WITH NO
SIGNIFICANT WEATHER AND/OR OBSTRUCTIONS TO VISIBILITY.

* - THESE STATIONS ARE NOT NWS STATIONS...THUS NOT UNDER NWS
QUALITY CONTROL.  THEY ALSO DO NOT REPORT WEATHER SUCH
AS PRECIPITATION OR FOG.

IAZ001>003-012>014-020>022-031>034-043>046-281200-
   NORTHWEST IOWA

CITY           SKY/WX    TMP DP  RH WIND       PRES   REMARKS
CARROLL *      CLOUDY    61  61 100 CALM      30.12R FOG
CHEROKEE *     CLEAR     62  62 100 CALM      30.10R FOG
DENISON *      FOG       64  64 100 CALM      30.08R VSB 1
LE MARS *      CLEAR     64  63  94 S5        30.08R
ORANGE CITY *  CLEAR     64  64 100 S5        30.09R
SHELDON *      CLEAR     63  63 100 E5        30.08R
SIOUX CITY     CLEAR     65  62  90 E6        30.07R
SPENCER        CLEAR     62  61  96 SE5       30.10R FOG
STORM LAKE *   CLEAR     63  63 100 SE6       30.12R FOG
$$

IAZ055>058-069>071-079>083-090>094-281200-
   SOUTHWEST IOWA

CITY           SKY/WX    TMP DP  RH WIND       PRES   REMARKS
ATLANTIC *     PTCLDY    61  61 100 N3        30.10R
AUDUBON *      CLEAR     57  55  94 CALM      30.12R FOG
CLARINDA *       N/A     64  64 100 MISG      30.11S
COUNCIL BLFS * CLEAR     68  66  94 SE7       30.08S
CRESTON *      CLEAR     66  66 100 CALM      30.12R
HARLAN  *      FOG       59  59 100 CALM      30.13R VSB 1/2
LAMONI         CLEAR     69  67  93 E5        30.10R
RED OAK *      PTCLDY    64  64 100 CALM      30.09F
SHENANDOAH *   CLEAR     68 -38   1 CALM      30.09S
$$

IAZ047>049-059>061-072>074-084-281200-
   CENTRAL IOWA

CITY           SKY/WX    TMP DP  RH WIND       PRES   REMARKS
AMES           FOG       59  59 100 CALM      30.11R VSB 1/2
ANKENY *         N/A    N/A N/A N/A MISG        N/A
BOONE *          N/A     64  64 100 E5        30.11R FOG
CHARITON *       N/A     68  64  88 MISG      30.10R
DES MOINES     PTCLDY    69  67  93 E5        30.09R
GRINNELL*      PTCLDY    65  64  96 E5        30.12R FOG
KNOXVILLE *    CLEAR     68  66  94 E5        30.09R
MARSHALLTOWN   PTCLDY    63  63 100 E3        30.11R FOG
NEWTON *       MOCLDY    66  66 100 CALM      30.11R
PELLA *        PTCLDY    67  66  96 CALM      30.11S FOG
PERRY *        FOG       62  62 100 NE3       30.10S VSB 1/2
$$

IAZ004>006-015-016-023>025-035-036-281200-
   NORTH CENTRAL IOWA

CITY           SKY/WX    TMP DP  RH WIND       PRES   REMARKS
ALGONA *       CLEAR     64  64 100 SE7       30.12R FOG
ESTHERVILLE    FOG       58  58 100 S3        30.11R VSB 1/4
FORT DODGE *   CLEAR     64  61  88 E3        30.12R
MASON CITY     FOG       59  59 100 S5        30.14R VSB 1/4
FOREST CITY *    N/A    N/A N/A N/A MISG        N/A
WEBSTER CITY * PTCLDY    63  63 100 SE6       30.10S FOG
IOWA FALLS *     N/A     60  59  96 CALM      30.14R FOG
$$

IAZ007>011-017>019-026>030-037>042-050>054-066-281200-
   NORTHEAST IOWA

CITY           SKY/WX    TMP DP  RH WIND       PRES   REMARKS
CEDAR RAPIDS   MOCLDY    67  67 100 NE6       30.11S
CHARLES CITY * CLEAR     63  63 100 S3        30.13S FOG
CLINTON *      CLOUDY    66  66 100 E5        30.14R FOG
DECORAH *      FOG       59  59 100 CALM      30.13R VSB 1
DUBUQUE        CLEAR     67  66  97 E3        30.15R
MONTICELLO *   FOG       61  61 100 CALM      30.13S VSB 1/4
OELWEIN *      CLOUDY    59  59 100 SE6       30.14R FOG
WATERLOO       FOG       59  59 100 CALM      30.11S VSB 1/4
$$

IAZ064-065-067-068-078-281200-
   EAST CENTRAL IOWA

CITY           SKY/WX    TMP DP  RH WIND       PRES   REMARKS
DAVENPORT      CLOUDY    67  66  97 E3        30.14R
IOWA CITY      PTCLDY    68  65  90 CALM      30.13R
MT. PLEASANT * PTCLDY    70  70 100 NE3       30.11R FOG
MUSCATINE *    FOG       66  66 100 CALM      30.11S VSB<1/4
QUAD CITIES    PTCLDY    69  67  93 NE3       30.11S
$$

IAZ062-063-075>077-085>089-095>099-281200-
   SOUTHEAST IOWA

CITY           SKY/WX    TMP DP  RH WIND       PRES   REMARKS
BURLINGTON     CLEAR     70  70 100 CALM      30.10S
FAIRFIELD *    PTCLDY    68  66  94 CALM      30.10S
FORT MADISON * PTCLDY    70  70 100 CALM      30.11S FOG
KEOKUK *       FOG       70  70 100 CALM      30.09S VSB 1/2
OSKALOOSA *      N/A     67  66  97 SE3       30.10S
CENTERVILLE *    N/A     66  66 100 CALM      30.12S
OTTUMWA        MOCLDY    67  66  97 SE3       30.10R
WASHINGTON *   PTCLDY    68  66  94 CALM      30.12R FOG
$$

ABBREVIATIONS USED IN REMARKS
   TC - TEMPERATURES IN CELSIUS
  WCI - WIND CHILL INDEX
   HX - HEAT INDEX
  VSB - VISIBILITY
$$





USA.gov is the U.S. government's official web portal to all federal, state and local government web resources and services.